Regional Weather Roundup
Issued by NWS

Home | Current Version | Previous Version | Graphics & Text | Print | Product List | Glossary Off
Versions: 1 2 3 4 5 6 7 8 9 10 11 12 13 14 15 16 17 18 19 20 21 22 23 24 25 26 27 28 29 30 31 32 33 34 35 36 37 38 39 40 41 42 43 44 45 46 47 48 49 50

000
ASUS43 KMKX 160810
RWRWI

WISCONSIN REGIONAL WEATHER ROUNDUP
NATIONAL WEATHER SERVICE MILWAUKEE/SULLIVAN WI
200 AM CST TUE JAN 16 2018

NOTE: "FAIR" INDICATES FEW OR NO CLOUDS BELOW 12,000 FEET WITH NO
SIGNIFICANT WEATHER AND/OR OBSTRUCTIONS TO VISIBILITY.

WIZ001-002-006>008-014>016-023>028-160900-
NORTHWEST WISCONSIN

CITY           SKY/WX    TMP DP  RH WIND       PRES   REMARKS
SUPERIOR ARPT  CLOUDY     6   1  78 NW9       30.62R WCI  -7
ASHLAND        LGT SNOW  19  15  84 N15       30.53R FOG     WCI   5
HAYWARD        LGT SNOW  14   9  80 N5        30.50R WCI   6
SIREN          MOCLDY     0  -3  86 CALM      30.57S
CUMBERLAND     LGT SNOW   3   0  85 N10       30.51R WCI -12
RICE LAKE      FAIR       6   1  83 CALM      30.52S
CHETEK         FAIR       5   1  85 NW3       30.51R
LADYSMITH      FAIR       8   6  90 N8        30.47S WCI  -4
EAU CLAIRE     FAIR       8   4  83 N8        30.49R WCI  -4
MENOMONIE      FAIR       9   3  78 NW9       30.52R WCI  -5
NEW RICHMOND   MOCLDY     2  -3  78 N10       30.56R WCI -13
OSCEOLA        FAIR       2  -3  82 NW5       30.61R WCI  -8
$$

WIZ003>005-009-010-017-018-160900-
NORTH CENTRAL WISCONSIN

CITY           SKY/WX    TMP DP  RH WIND       PRES   REMARKS
MANITOWISH WTR LGT SNOW   1   0  95 CALM      30.41R
ARBOR VITAE    FAIR       6   3  87 CALM      30.40R
WOODRUFF       FAIR       6   3  87 CALM      30.40R
RHINELANDER    FAIR       8   6  92 N5        30.39R WCI   0
EAGLE RIVER    FAIR       3  -1  85 CALM      30.39R
LAND O LAKES   LGT SNOW  -1  -5  84 CALM      30.41R
PHILLIPS       FAIR       4   3  94 CALM      30.42R
TOMAHAWK       FAIR       6   4  89 CALM      30.41R
MEDFORD        FAIR       8   6  90 N7        30.40R WCI  -3
MERRILL        FLURRIES   9   6  89 N6        30.41R WCI  -1
$$

WIZ029-030-035-036-043>047-160900-
CENTRAL WISCONSIN

CITY           SKY/WX    TMP DP  RH WIND       PRES   REMARKS
WAUSAU         MOCLDY     9   6  88 VRB3      30.40R
MOSINEE        FAIR      10  10 100 N12       30.41R WCI  -4
MARSHFIELD     FAIR      13   9  84 N8        30.40R WCI   2
STEVENS POINT  CLOUDY    10   8  92 N7        30.41R WCI  -2
WAUPACA        MOCLDY    16  11  82 N8        30.41R WCI   5
WAUTOMA        FLURRIES  13  10  88 N7        30.41R WCI   3
WISC RAPIDS    CLOUDY    10   6  84 N7        30.42R WCI  -1
CAMP DOUGLAS   MOCLDY   N/A N/A N/A W8        30.44R
$$

WIZ011>013-019>022-031-037>040-048>050-160900-
NORTHEAST WISCONSIN

CITY           SKY/WX    TMP DP  RH WIND       PRES   REMARKS
ANTIGO         CLOUDY    10   8  90 N10       30.38R WCI  -4
SHAWANO        CLOUDY    17  13  84 N8        30.40R WCI   6
OCONTO         CLOUDY    14  10  85 N7        30.40R WCI   4
STURGEON BAY   FLURRIES  13  10  88 N12       30.37R WCI  -1
GREEN BAY      CLOUDY    17  12  80 N12       30.38R WCI   4
MANITOWOC      LGT SNOW  17  14  88 NW9       30.36R FOG     WCI   6
APPLETON       FLURRIES  14  10  85 N10       30.35R WCI   1
CLINTONVILLE   CLOUDY    16  12  86 N7        30.40R WCI   6
OSHKOSH        CLOUDY    14  11  87 N9        30.37R WCI   2
$$

WIZ032>034-041-042-053>061-160900-
SOUTHWEST WISCONSIN

CITY           SKY/WX    TMP DP  RH WIND       PRES   REMARKS
LA CROSSE      LGT SNOW   9   4  80 NW13      30.50R WCI  -7
SPARTA         FLURRIES   9   6  87 CALM      30.47R
VIROQUA        CLOUDY     6   4  94 NW13      30.40S WCI -10
BOSCOBEL       CLOUDY     9   2  73 NW3       30.48R
PRAIRIE DU CHI CLOUDY     6  -1  73 NW7       30.49R WCI  -5
PLATTEVILLE    CLOUDY     6   3  87 NW8       30.42R WCI  -7
$$

WIZ056-057-062-063-064-067-068-160900-
SOUTH CENTRAL WISCONSIN

CITY           SKY/WX    TMP DP  RH WIND       PRES   REMARKS
REEDSBURG      FLURRIES   9   6  87 W6        30.41R WCI  -1
BARABOO/DELLS  MOCLDY    10   7  87 NW8       30.39R WCI  -2
LONE ROCK      CLOUDY    10   5  80 W9        30.44R WCI  -3
MINERAL POINT  FLURRIES  10   9  92 NW12      30.38R WCI  -4
MADISON        CLOUDY    12   9  87 NW6       30.37R WCI   3
MIDDLETON      CLOUDY    13  10  85 W6        30.38R WCI   4
WATERTOWN      CLOUDY    16  16  98 N9        30.34R WCI   5
MONROE         CLOUDY    10   7  85 NW10G17   30.36R WCI  -3
JANESVILLE     MOCLDY    14  12  92 W5        30.35R WCI   6
$$

WIZ051-052-058>065-066-070>072-160900-
SOUTHEAST WISCONSIN

CITY           SKY/WX    TMP DP  RH WIND       PRES   REMARKS
MILWAUKEE      LGT SNOW  21  18  88 NW8       30.32R FOG     WCI  11
WAUKESHA       LGT SNOW  18  14  86 NW5       30.33R WCI  11
MILWAUKEE/TIMM LGT SNOW  19  14  79 N8        30.33R WCI   9
RACINE         LGT SNOW  21  18  88 NW10      30.32R FOG     WCI  10
BURLINGTON     LGT SNOW  17  14  86 N7        30.32R WCI   8
KENOSHA        MOCLDY    15  11  83 W7        30.30R WCI   5
FOND DU LAC    CLOUDY    17  11  77 N13       30.36R WCI   4
SHEBOYGAN      LGT SNOW  18  15  88 N10       30.34R FOG     WCI   6
WEST BEND      LGT SNOW  18  18 100 N7        30.33R WCI   8
JUNEAU         LGT SNOW  15  12  89 N10       30.35R WCI   2
$$

LSZ147-162-160900-
LAKE SUPERIOR

STATION/POSITION TIME  TEMP    WIND        PRES    WAVE
                       AIR SEA DIR/SP/G            HT/PER
                 (UTC) (F)     (DEG/KT/KT) (MB)    (FT/S)
DEVILS ISLAND    0800   20      30/ 17/ 19 1035.8R
SAXON HARBOR     0758   25      20/ 21/ 25 1032.2R
$$

LMZ867-665-643>646-160900-
LAKE MICHIGAN

STATION/POSITION TIME  TEMP    WIND        PRES    WAVE
                       AIR SEA DIR/SP/G            HT/PER
                 (UTC) (F)     (DEG/KT/KT) (MB)    (FT/S)
NORTHPORT PIER   0740   21      CALM  /  1 1028.8R
KEWAUNEE LAKESHO 0742   18     310/  6/  8 1026.8R
SHEBOYGAN LAKESH 0800   20     330/ 14/ 19 1028.3R
PORT WASHINGTON  0730   20     340/  5/ 11 1028.1R
MILWAUKEE LAKESH 0750   20     330/  8/ 11   N/A
KENOSHA   LAKESH 0800   18     290/  6/  9 1026.1
$$

TC  - TEMPERATURE IN CELSIUS
VSB - VISIBILITY IN STATUTE MILES
WCI - WIND CHILL INDEX
HX  - HEAT INDEX




USA.gov is the U.S. government's official web portal to all federal, state and local government web resources and services.